TimeCDT,TemperatureF,Dew PointF,Humidity,Sea Level PressureIn,VisibilityMPH,Wind Direction,Wind SpeedMPH,Gust SpeedMPH,PrecipitationIn,Events,Conditions,WindDirDegrees,DateUTC
12:58 AM,56.1,40.8,57,30.14,8.0,SE,8.1,-,N/A,,Clear,130,2013-05-14 05:58:00
1:45 AM,55.4,39.2,54,30.13,2.5,SSE,8.1,-,N/A,,Haze,150,2013-05-14 06:45:00
1:50 AM,55.4,39.2,54,30.13,3.0,SSE,9.2,-,N/A,,Haze,150,2013-05-14 06:50:00
1:58 AM,55.8,39.7,55,30.12,7.0,SSE,9.2,-,N/A,,Clear,150,2013-05-14 06:58:00
2:58 AM,55.4,39.2,54,30.11,10.0,SSE,6.9,-,N/A,,Clear,150,2013-05-14 07:58:00
3:58 AM,53.8,41.2,62,30.12,10.0,ESE,4.6,-,N/A,,Clear,120,2013-05-14 08:58:00
4:58 AM,52.7,41.4,65,30.10,10.0,SE,6.9,-,N/A,,Clear,130,2013-05-14 09:58:00
5:58 AM,52.2,42.3,69,30.11,10.0,ESE,8.1,-,N/A,,Clear,120,2013-05-14 10:58:00
6:58 AM,55.6,44.2,66,30.11,10.0,SSE,6.9,-,N/A,,Partly Cloudy,160,2013-05-14 11:58:00
7:58 AM,62.8,48.4,59,30.10,10.0,SSW,12.7,19.6,N/A,,Partly Cloudy,200,2013-05-14 12:58:00
8:58 AM,66.6,51.6,59,30.09,10.0,South,8.1,-,N/A,,Clear,190,2013-05-14 13:58:00
9:58 AM,72.0,54.0,53,30.08,10.0,SSW,12.7,-,N/A,,Clear,210,2013-05-14 14:58:00
10:58 AM,75.7,55.9,50,30.08,10.0,SW,9.2,-,N/A,,Clear,230,2013-05-14 15:58:00
11:58 AM,78.6,56.7,47,30.05,10.0,SSW,13.8,21.9,N/A,,Clear,210,2013-05-14 16:58:00
12:58 PM,81.0,57.4,44,30.03,10.0,SW,19.6,-,N/A,,Clear,220,2013-05-14 17:58:00
1:58 PM,82.6,57.6,42,30.00,10.0,SW,17.3,24.2,N/A,,Clear,220,2013-05-14 18:58:00
2:58 PM,83.8,56.7,39,29.98,10.0,SSW,19.6,24.2,N/A,,Clear,210,2013-05-14 19:58:00
3:58 PM,85.3,57.0,38,29.97,10.0,SSW,18.4,23.0,N/A,,Clear,210,2013-05-14 20:58:00
4:58 PM,84.9,56.7,38,29.96,10.0,SW,20.7,-,N/A,,Clear,230,2013-05-14 21:58:00
5:58 PM,83.8,56.7,39,29.96,10.0,SW,18.4,27.6,N/A,,Clear,220,2013-05-14 22:58:00
6:58 PM,81.1,57.7,45,29.95,10.0,SW,15.0,-,N/A,,Clear,230,2013-05-14 23:58:00
7:58 PM,76.8,58.1,52,29.96,10.0,SW,9.2,-,N/A,,Clear,230,2013-05-15 00:58:00
8:58 PM,73.9,58.5,58,29.97,10.0,SW,9.2,-,N/A,,Clear,220,2013-05-15 01:58:00
9:58 PM,73.9,58.5,58,29.97,10.0,SW,12.7,-,N/A,,Clear,220,2013-05-15 02:58:00
10:58 PM,73.6,57.6,57,29.97,10.0,SW,16.1,-,N/A,,Clear,230,2013-05-15 03:58:00
11:58 PM,72.9,56.1,56,29.98,10.0,SW,15.0,-,N/A,,Clear,230,2013-05-15 04:58:00